WAT5643 YPAD-YWHA

Flight info

Callsign WAT5643
Flight time 0h 55m
Altitude 1500
Route AD
Aircraft EC35/L-VGD/C

Departure

Time 2026-04-26 22:25
Airport Adelaide International Airport (YPAD)

Arrival

Time 2026-04-26 23:21
Airport Whyalla Airport (YWHA)
Time Latitude Longitude Altitude Speed Heading
2026-04-26 22:24 -34.94835 138.52196 27 ft 0 kts 163°
2026-04-26 22:24 -34.94847 138.52210 28 ft 13 kts
2026-04-26 22:25 -34.94662 138.52234 105 ft 44 kts
2026-04-26 22:25 -34.94233 138.52151 246 ft 77 kts 342°
2026-04-26 22:25 -34.93667 138.51855 439 ft 90 kts 338°
2026-04-26 22:25 -34.93080 138.51517 622 ft 96 kts 336°
2026-04-26 22:26 -34.92465 138.51158 808 ft 98 kts 336°
2026-04-26 22:26 -34.91845 138.50794 995 ft 99 kts 336°
2026-04-26 22:26 -34.91224 138.50423 1187 ft 100 kts 337°
2026-04-26 22:26 -34.90574 138.50040 1387 ft 109 kts 337°
2026-04-26 22:27 -34.89871 138.49623 1573 ft 113 kts 336°
2026-04-26 22:27 -34.89160 138.49193 1758 ft 115 kts 337°
2026-04-26 22:27 -34.88441 138.48752 1942 ft 115 kts 337°
2026-04-26 22:27 -34.87713 138.48326 2125 ft 114 kts 340°
2026-04-26 22:28 -34.86924 138.47920 2009 ft 131 kts 338°
2026-04-26 22:28 -34.86053 138.47476 1882 ft 137 kts 339°
2026-04-26 22:28 -34.85164 138.47020 1754 ft 140 kts 338°
2026-04-26 22:28 -34.84269 138.46570 1628 ft 140 kts 339°
2026-04-26 22:29 -34.83374 138.46121 1529 ft 138 kts 338°
2026-04-26 22:29 -34.82492 138.45679 1519 ft 134 kts 339°
2026-04-26 22:29 -34.81625 138.45242 1515 ft 133 kts 339°
2026-04-26 22:29 -34.80777 138.44818 1515 ft 132 kts 339°
2026-04-26 22:30 -34.79929 138.44394 1513 ft 132 kts 339°
2026-04-26 22:30 -34.79081 138.43968 1516 ft 131 kts 339°
2026-04-26 22:30 -34.78236 138.43541 1515 ft 131 kts 338°
2026-04-26 22:30 -34.77393 138.43094 1519 ft 131 kts 338°
2026-04-26 22:31 -34.76554 138.42650 1520 ft 131 kts 338°
2026-04-26 22:31 -34.75720 138.42207 1520 ft 131 kts 338°
2026-04-26 22:31 -34.74884 138.41759 1518 ft 131 kts 338°
2026-04-26 22:31 -34.74045 138.41307 1518 ft 131 kts 338°
2026-04-26 22:32 -34.73209 138.40855 1519 ft 131 kts 338°
2026-04-26 22:32 -34.72377 138.40402 1518 ft 132 kts 338°
2026-04-26 22:32 -34.71536 138.39943 1517 ft 132 kts 338°
2026-04-26 22:32 -34.70701 138.39485 1518 ft 132 kts 338°
2026-04-26 22:33 -34.69856 138.39024 1518 ft 132 kts 338°
2026-04-26 22:33 -34.68180 138.38110 1517 ft 132 kts 338°
2026-04-26 22:33 -34.67343 138.37648 1514 ft 132 kts 338°
2026-04-26 22:34 -34.66507 138.37187 1513 ft 132 kts 338°
2026-04-26 22:34 -34.65671 138.36723 1513 ft 132 kts 338°
2026-04-26 22:34 -34.64834 138.36253 1516 ft 132 kts 338°
2026-04-26 22:34 -34.63995 138.35783 1518 ft 132 kts 338°
2026-04-26 22:35 -34.63154 138.35306 1519 ft 133 kts 338°
2026-04-26 22:35 -34.62316 138.34833 1520 ft 133 kts 338°
2026-04-26 22:35 -34.61469 138.34360 1521 ft 133 kts 339°
2026-04-26 22:35 -34.60624 138.33890 1520 ft 133 kts 338°
2026-04-26 22:36 -34.59790 138.33421 1518 ft 133 kts 338°
2026-04-26 22:36 -34.58947 138.32945 1516 ft 133 kts 338°
2026-04-26 22:36 -34.58098 138.32466 1514 ft 133 kts 338°
2026-04-26 22:36 -34.57254 138.31990 1512 ft 133 kts 338°
2026-04-26 22:37 -34.56417 138.31519 1510 ft 133 kts 338°
2026-04-26 22:37 -34.55571 138.31044 1510 ft 133 kts 338°
2026-04-26 22:37 -34.54723 138.30571 1511 ft 133 kts 338°
2026-04-26 22:37 -34.53886 138.30101 1511 ft 133 kts 338°
2026-04-26 22:38 -34.53048 138.29629 1511 ft 133 kts 338°
2026-04-26 22:38 -34.52201 138.29150 1510 ft 133 kts 338°
2026-04-26 22:38 -34.51359 138.28671 1510 ft 133 kts 338°
2026-04-26 22:38 -34.50515 138.28194 1509 ft 133 kts 338°
2026-04-26 22:39 -34.49683 138.27722 1507 ft 133 kts 338°
2026-04-26 22:39 -34.48847 138.27245 1508 ft 133 kts 338°
2026-04-26 22:39 -34.48007 138.26764 1508 ft 133 kts 338°
2026-04-26 22:39 -34.47169 138.26286 1509 ft 132 kts 338°
2026-04-26 22:40 -34.46328 138.25806 1510 ft 132 kts 338°
2026-04-26 22:40 -34.45486 138.25326 1509 ft 132 kts 338°
2026-04-26 22:40 -34.44653 138.24850 1509 ft 133 kts 338°
2026-04-26 22:40 -34.43816 138.24367 1507 ft 133 kts 338°
2026-04-26 22:41 -34.42983 138.23888 1509 ft 132 kts 338°
2026-04-26 22:41 -34.42153 138.23412 1509 ft 133 kts 338°
2026-04-26 22:41 -34.41305 138.22925 1511 ft 133 kts 338°
2026-04-26 22:41 -34.40469 138.22449 1510 ft 133 kts 338°
2026-04-26 22:42 -34.39633 138.21971 1508 ft 133 kts 338°
2026-04-26 22:42 -34.38791 138.21489 1506 ft 133 kts 338°
2026-04-26 22:42 -34.37952 138.21007 1505 ft 133 kts 338°
2026-04-26 22:42 -34.37120 138.20531 1505 ft 132 kts 338°
2026-04-26 22:43 -34.36282 138.20052 1505 ft 132 kts 338°
2026-04-26 22:43 -34.35457 138.19577 1505 ft 132 kts 338°
2026-04-26 22:43 -34.34615 138.19086 1504 ft 132 kts 338°
2026-04-26 22:43 -34.33789 138.18605 1502 ft 133 kts 338°
2026-04-26 22:44 -34.32961 138.18117 1501 ft 133 kts 338°
2026-04-26 22:44 -34.32119 138.17619 1501 ft 133 kts 338°
2026-04-26 22:44 -34.31294 138.17131 1500 ft 133 kts 338°
2026-04-26 22:44 -34.30446 138.16660 1499 ft 133 kts 341°
2026-04-26 22:45 -34.29591 138.16222 1501 ft 133 kts 341°
2026-04-26 22:45 -34.28739 138.15787 1504 ft 133 kts 341°
2026-04-26 22:45 -34.27881 138.15350 1507 ft 133 kts 341°
2026-04-26 22:45 -34.27027 138.14917 1510 ft 132 kts 341°
2026-04-26 22:46 -34.26185 138.14491 1511 ft 132 kts 341°
2026-04-26 22:46 -34.25327 138.14056 1512 ft 132 kts 341°
2026-04-26 22:46 -34.24487 138.13626 1512 ft 132 kts 341°
2026-04-26 22:46 -34.23639 138.13184 1512 ft 132 kts 341°
2026-04-26 22:47 -34.22790 138.12741 1512 ft 132 kts 341°
2026-04-26 22:47 -34.21941 138.12293 1513 ft 132 kts 340°
2026-04-26 22:47 -34.21109 138.11856 1511 ft 132 kts 341°
2026-04-26 22:47 -34.20260 138.11412 1512 ft 132 kts 341°
2026-04-26 22:48 -34.19407 138.10969 1513 ft 132 kts 341°
2026-04-26 22:48 -34.18568 138.10536 1513 ft 132 kts 341°
2026-04-26 22:48 -34.17719 138.10100 1512 ft 132 kts 341°
2026-04-26 22:48 -34.16859 138.09662 1513 ft 132 kts 341°
2026-04-26 22:49 -34.16008 138.09224 1513 ft 133 kts 340°
2026-04-26 22:49 -34.15159 138.08789 1513 ft 133 kts 341°
2026-04-26 22:49 -34.14305 138.08353 1512 ft 132 kts 341°
2026-04-26 22:49 -34.13463 138.07922 1512 ft 132 kts 341°
2026-04-26 22:50 -34.12613 138.07483 1511 ft 132 kts 341°
2026-04-26 22:50 -34.11768 138.07024 1513 ft 132 kts 339°
2026-04-26 22:50 -34.10927 138.06566 1514 ft 132 kts 340°
2026-04-26 22:50 -34.10086 138.06108 1514 ft 132 kts 340°
2026-04-26 22:51 -34.09232 138.05638 1516 ft 132 kts 340°
2026-04-26 22:51 -34.08396 138.05182 1517 ft 133 kts 340°
2026-04-26 22:51 -34.07537 138.04718 1520 ft 133 kts 340°
2026-04-26 22:51 -34.06694 138.04266 1516 ft 133 kts 339°
2026-04-26 22:52 -34.05835 138.03810 1514 ft 133 kts 340°
2026-04-26 22:52 -34.04983 138.03355 1508 ft 133 kts 340°
2026-04-26 22:52 -34.04129 138.02898 1501 ft 133 kts 340°
2026-04-26 22:52 -34.03278 138.02440 1496 ft 133 kts 340°
2026-04-26 22:53 -34.02427 138.01985 1494 ft 133 kts 340°
2026-04-26 22:53 -34.01575 138.01527 1493 ft 132 kts 340°
2026-04-26 22:53 -34.00741 138.01074 1492 ft 132 kts 340°
2026-04-26 22:53 -33.99885 138.00609 1496 ft 132 kts 339°
2026-04-26 22:54 -33.99053 138.00153 1494 ft 132 kts 340°
2026-04-26 22:54 -33.98206 137.99686 1493 ft 132 kts 340°
2026-04-26 22:54 -33.97368 137.99225 1490 ft 132 kts 340°
2026-04-26 22:54 -33.96523 137.98759 1490 ft 131 kts 340°
2026-04-26 22:55 -33.95687 137.98305 1492 ft 131 kts 340°
2026-04-26 22:55 -33.94856 137.97849 1498 ft 132 kts 340°
2026-04-26 22:55 -33.93996 137.97377 1489 ft 135 kts 340°
2026-04-26 22:55 -33.93118 137.96904 1489 ft 136 kts 340°
2026-04-26 22:56 -33.92229 137.96426 1492 ft 137 kts 340°
2026-04-26 22:56 -33.91333 137.95938 1493 ft 137 kts 340°
2026-04-26 22:56 -33.90456 137.95459 1491 ft 137 kts 340°
2026-04-26 22:56 -33.89581 137.94978 1491 ft 136 kts 340°
2026-04-26 22:57 -33.88710 137.94490 1492 ft 136 kts 340°
2026-04-26 22:57 -33.87838 137.94008 1491 ft 136 kts 340°
2026-04-26 22:57 -33.86977 137.93536 1488 ft 136 kts 340°
2026-04-26 22:57 -33.86107 137.93060 1489 ft 136 kts 340°
2026-04-26 22:58 -33.85242 137.92584 1491 ft 136 kts 340°
2026-04-26 22:58 -33.84368 137.92107 1489 ft 136 kts 340°
2026-04-26 22:58 -33.83503 137.91638 1489 ft 136 kts 340°
2026-04-26 22:58 -33.82612 137.91177 1490 ft 137 kts 341°
2026-04-26 22:59 -33.81722 137.90718 1490 ft 137 kts 341°
2026-04-26 22:59 -33.80844 137.90260 1488 ft 137 kts 340°
2026-04-26 22:59 -33.79961 137.89806 1408 ft 141 kts 341°
2026-04-26 22:59 -33.79041 137.89329 1281 ft 143 kts 340°
2026-04-26 23:00 -33.78109 137.88856 1159 ft 143 kts 340°
2026-04-26 23:00 -33.77182 137.88393 1033 ft 143 kts 340°
2026-04-26 23:00 -33.76275 137.87941 994 ft 139 kts 341°
2026-04-26 23:00 -33.75382 137.87497 992 ft 136 kts 341°
2026-04-26 23:01 -33.74496 137.87058 988 ft 136 kts 341°
2026-04-26 23:01 -33.73631 137.86621 988 ft 135 kts 341°
2026-04-26 23:01 -33.72753 137.86180 985 ft 135 kts 340°
2026-04-26 23:01 -33.71873 137.85738 987 ft 135 kts 341°
2026-04-26 23:02 -33.70998 137.85295 986 ft 135 kts 341°
2026-04-26 23:02 -33.70121 137.84853 986 ft 135 kts 341°
2026-04-26 23:02 -33.69249 137.84412 986 ft 136 kts 341°
2026-04-26 23:02 -33.68375 137.83969 986 ft 136 kts 341°
2026-04-26 23:03 -33.67503 137.83524 987 ft 136 kts 341°
2026-04-26 23:03 -33.66616 137.83077 988 ft 136 kts 340°
2026-04-26 23:03 -33.65727 137.82629 986 ft 136 kts 341°
2026-04-26 23:03 -33.64856 137.82193 986 ft 135 kts 340°
2026-04-26 23:04 -33.63980 137.81757 986 ft 135 kts 341°
2026-04-26 23:04 -33.63109 137.81320 986 ft 135 kts 340°
2026-04-26 23:04 -33.62238 137.80885 987 ft 135 kts 340°
2026-04-26 23:04 -33.61374 137.80452 991 ft 136 kts 341°
2026-04-26 23:05 -33.60495 137.80009 990 ft 136 kts 340°
2026-04-26 23:05 -33.59626 137.79575 988 ft 136 kts 341°
2026-04-26 23:05 -33.58752 137.79131 987 ft 136 kts 341°
2026-04-26 23:05 -33.57872 137.78680 988 ft 136 kts 340°
2026-04-26 23:06 -33.56996 137.78233 987 ft 136 kts 341°
2026-04-26 23:06 -33.56131 137.77792 985 ft 136 kts 340°
2026-04-26 23:06 -33.55250 137.77344 983 ft 136 kts 340°
2026-04-26 23:06 -33.54386 137.76888 983 ft 136 kts 339°
2026-04-26 23:07 -33.53529 137.76434 981 ft 135 kts 339°
2026-04-26 23:07 -33.52662 137.75980 980 ft 135 kts 340°
2026-04-26 23:07 -33.51807 137.75528 984 ft 135 kts 339°
2026-04-26 23:07 -33.50946 137.75076 987 ft 135 kts 339°
2026-04-26 23:08 -33.50078 137.74618 989 ft 135 kts 340°
2026-04-26 23:08 -33.49213 137.74159 989 ft 136 kts 340°
2026-04-26 23:08 -33.48343 137.73695 988 ft 136 kts 340°
2026-04-26 23:08 -33.47480 137.73233 989 ft 136 kts 339°
2026-04-26 23:09 -33.46617 137.72772 986 ft 136 kts 339°
2026-04-26 23:09 -33.45747 137.72308 985 ft 136 kts 339°
2026-04-26 23:09 -33.44880 137.71849 988 ft 135 kts 339°
2026-04-26 23:09 -33.44020 137.71391 990 ft 136 kts 340°
2026-04-26 23:10 -33.43146 137.70931 993 ft 136 kts 339°
2026-04-26 23:10 -33.42283 137.70474 993 ft 136 kts 339°
2026-04-26 23:10 -33.41412 137.70016 993 ft 136 kts 339°
2026-04-26 23:10 -33.40541 137.69559 994 ft 136 kts 340°
2026-04-26 23:11 -33.39673 137.69099 992 ft 136 kts 340°
2026-04-26 23:11 -33.38800 137.68640 993 ft 136 kts 340°
2026-04-26 23:11 -33.37933 137.68179 991 ft 136 kts 340°
2026-04-26 23:11 -33.37066 137.67719 990 ft 136 kts 340°
2026-04-26 23:12 -33.36205 137.67255 988 ft 136 kts 339°
2026-04-26 23:12 -33.35332 137.66789 989 ft 136 kts 340°
2026-04-26 23:12 -33.34462 137.66322 990 ft 136 kts 339°
2026-04-26 23:12 -33.33309 137.65707 991 ft 136 kts 339°
2026-04-26 23:13 -33.32727 137.65399 990 ft 136 kts 339°
2026-04-26 23:13 -33.31853 137.64935 988 ft 136 kts 339°
2026-04-26 23:13 -33.30985 137.64471 986 ft 136 kts 339°
2026-04-26 23:13 -33.30121 137.64014 985 ft 136 kts 339°
2026-04-26 23:14 -33.29250 137.63554 984 ft 136 kts 340°
2026-04-26 23:14 -33.28388 137.63097 984 ft 136 kts 340°
2026-04-26 23:14 -33.27515 137.62634 984 ft 137 kts 339°
2026-04-26 23:14 -33.26638 137.62169 984 ft 137 kts 339°
2026-04-26 23:15 -33.25777 137.61708 985 ft 137 kts 340°
2026-04-26 23:15 -33.24896 137.61237 984 ft 137 kts 339°
2026-04-26 23:15 -33.24032 137.60776 984 ft 137 kts 339°
2026-04-26 23:15 -33.23155 137.60310 982 ft 136 kts 339°
2026-04-26 23:16 -33.22298 137.59851 981 ft 136 kts 339°
2026-04-26 23:16 -33.21420 137.59384 982 ft 135 kts 339°
2026-04-26 23:16 -33.20560 137.58925 981 ft 135 kts 339°
2026-04-26 23:16 -33.19702 137.58469 987 ft 135 kts 339°
2026-04-26 23:17 -33.18842 137.58009 993 ft 135 kts 339°
2026-04-26 23:17 -33.17973 137.57546 990 ft 136 kts 339°
2026-04-26 23:17 -33.17108 137.57088 987 ft 136 kts 339°
2026-04-26 23:17 -33.16213 137.56621 862 ft 141 kts 340°
2026-04-26 23:18 -33.15299 137.56166 740 ft 143 kts 340°
2026-04-26 23:18 -33.14379 137.55714 617 ft 143 kts 340°
2026-04-26 23:18 -33.13466 137.55267 497 ft 143 kts 340°
2026-04-26 23:18 -33.12543 137.54823 377 ft 142 kts 340°
2026-04-26 23:19 -33.11621 137.54381 256 ft 142 kts 340°
2026-04-26 23:19 -33.10708 137.53946 121 ft 138 kts 339°
2026-04-26 23:19 -33.09856 137.53552 95 ft 122 kts 337°
2026-04-26 23:19 -33.09133 137.53221 119 ft 96 kts 338°
2026-04-26 23:20 -33.08534 137.52946 131 ft 84 kts 339°
2026-04-26 23:20 -33.07977 137.52689 103 ft 83 kts 339°
2026-04-26 23:20 -33.07421 137.52429 77 ft 79 kts 339°
2026-04-26 23:20 -33.06920 137.52200 69 ft 65 kts 338°
2026-04-26 23:21 -33.06544 137.52094 63 ft 36 kts 356°
2026-04-26 23:21 -33.06305 137.52039 47 ft 26 kts 352°
2026-04-26 23:21 -33.06214 137.52017 39 ft 3 kts 358°
2026-04-26 23:21 -33.06187 137.52025 41 ft 1 kts
2026-04-26 23:22 -33.06186 137.52026 39 ft 0 kts 351°